7 * 24
多渠道服务支持
FENGYUN 3F 是中国风云三号气象卫星系列的第六颗卫星,于2021年成功发射。该卫星主要用于全球气象观测、环境监测和气候变化研究,搭载多种先进遥感仪器,具备高精度、高分辨率的观测能力。它运行在太阳同步轨道,提供全天候、全天时的气象数据,为天气预报、灾害预警和科学研究提供重要支持,是中国气象现代化建设的重要组成部分。
中国
(CN)
| 数据来源 | 国际轨道数据 |
| 星历时间: | 2025-10-28T23:10:39+0800 16小时前 查看轨道信息 |
| 半长轴: | 7203.911km |
| 偏心率: | 0.0001345 |
| 轨道倾角: | 98.713° |
| 近地点辐角 | 81.070° |
| 升交点赤经 | 10.643° |
| 平近点角 | 279.063° |
| 近地点: | 824.807km |
| 远地点: | 826.745km |
| 周期: | 101.417分钟 |
| 每日圈数: | 14.198756 |